Weather History for Durango, CO

Change the Weather History Date:

Thursday, February 21, 2013

  Actual Average Record
Temperature  
Mean Temperature 22 °F 30 °F  
Max Temperature 36 °F 44 °F 62 °F (1972)
Min Temperature 7 °F 16 °F 7 °F (2013)
Degree Days  
Heating Degree Days 43 35  
Month to date heating degree days 805 788  
Since 1 July heating degree days 5042 4942  
Cooling Degree Days 0 0  
Month to date cooling degree days 0 0  
Year to date cooling degree days 0 0  
Moisture  
Dew Point 15 °F    
Average Humidity 76    
Maximum Humidity 96    
Minimum Humidity 56    
Precipitation  
Precipitation 0.00 in 0.05 in 0.51 in (1980)
Month to date precipitation 0.43 0.89  
Year to date precipitation 2.17 2.01  
Sea Level Pressure  
Sea Level Pressure 29.71 in    
Wind  
Wind Speed 8 mph (NNE)    
Max Wind Speed 25 mph    
Max Gust Speed 31 mph    
Visibility 4 miles    
Events Fog    
T = Trace of Precipitation, MM = Missing Value Source: NWS Daily Summary

Daily Weather History Graph

Daily Weather History Graph

Search for Another Location

Airport:

Trip Planner

Search our weather history database for the weather conditions in past years. The results will help you decide how hot, cold, wet, or windy it might be!

Date:

Astronomy

Feb. 21, 2013 Rise Set
Actual Time 6:52 AM MST 5:57 PM MST
Civil Twilight 6:25 AM MST 6:23 PM MST
Nautical Twilight 5:55 AM MST 6:54 PM MST
Astronomical Twilight 5:25 AM MST 7:24 PM MST
Moon 2:18 PM MST (2/21) 3:55 AM MST (2/21)
Length of Visible Light 11h 58m
Length of Day
11h 05m
Waxing Gibbous, 84% of the Moon is Illuminated
Feb 21
Waxing Gibbous
Feb 25
Full
Mar 4
Last Quarter
Mar 11
New
Mar 19
First Quarter

Hourly Weather History & Observations

Time (MST) Temp. Windchill Dew Point Humidity Pressure Visibility Wind Dir Wind Speed Gust Speed Precip Events Conditions
12:05 AM 21.2 °F 14.9 °F 19.4 °F 93% 29.61 in 0.2 mi NE 4.6 mph - N/A Fog Light Freezing Fog
12:24 AM 19.4 °F - 17.6 °F 93% 29.61 in 0.5 mi Calm Calm - N/A Fog Light Freezing Fog
12:36 AM 19.4 °F 14.3 °F 17.6 °F 93% 29.61 in 0.2 mi SE 3.5 mph - N/A Fog Light Freezing Fog
12:53 AM 19.9 °F 14.9 °F 17.1 °F 89% 29.70 in 0.5 mi NW 3.5 mph - N/A Fog Light Freezing Fog
1:24 AM 21.2 °F - 17.6 °F 86% 29.60 in 1.2 mi Calm Calm - N/A   Overcast
1:30 AM 21.2 °F - 19.4 °F 93% 29.60 in 2.0 mi Calm Calm - N/A   Overcast
1:34 AM 21.2 °F - 19.4 °F 93% 29.60 in 5.0 mi Calm Calm - N/A   Overcast
1:49 AM 21.2 °F - 17.6 °F 86% 29.60 in 10.0 mi Calm Calm - N/A   Overcast
1:53 AM 21.0 °F - 18.0 °F 88% 29.68 in 10.0 mi Calm Calm - N/A   Overcast
2:42 AM 19.4 °F - 17.6 °F 93% 29.59 in 3.0 mi Calm Calm - N/A   Overcast
2:46 AM 19.4 °F - 17.6 °F 93% 29.59 in 1.5 mi Calm Calm - N/A   Overcast
2:48 AM 19.4 °F - 17.6 °F 93% 29.59 in 0.8 mi Calm Calm - N/A   Overcast
2:53 AM 19.9 °F - 18.0 °F 92% 29.69 in 0.2 mi Calm Calm - N/A Fog Light Freezing Fog
3:35 AM 17.6 °F - 15.8 °F 93% 29.59 in 0.2 mi Calm Calm - N/A Fog Light Freezing Fog
4:10 AM 17.6 °F - 12.2 °F 79% 29.59 in 1.0 mi Calm Calm - N/A   Mist
4:12 AM 15.8 °F - 12.2 °F 86% 29.59 in 2.5 mi Calm Calm - N/A   Mist
4:17 AM 15.8 °F - 10.4 °F 79% 29.60 in 1.2 mi Calm Calm - N/A   Mist
4:25 AM 12.2 °F - 8.6 °F 85% 29.60 in 0.5 mi Calm Calm - N/A Fog Light Freezing Fog
4:31 AM 12.2 °F - 8.6 °F 85% 29.60 in 0.2 mi Calm Calm - N/A   Haze
4:50 AM 14.0 °F - 10.4 °F 86% 29.61 in 0.5 mi Calm Calm - N/A Fog Light Freezing Fog
4:53 AM 15.1 °F - 10.9 °F 84% 29.73 in 0.8 mi Calm Calm - N/A   Mist
4:56 AM 15.8 °F 10.2 °F 10.4 °F 79% 29.61 in 1.2 mi North 3.5 mph - N/A   Scattered Clouds
4:58 AM 15.8 °F 10.2 °F 10.4 °F 79% 29.62 in 2.5 mi North 3.5 mph - N/A   Partly Cloudy
5:05 AM 14.0 °F 6.5 °F 8.6 °F 79% 29.62 in 10.0 mi NE 4.6 mph - N/A   Clear
5:29 AM 8.6 °F -1.3 °F 5.0 °F 85% 29.63 in 2.5 mi ENE 5.8 mph - N/A   Scattered Clouds
5:31 AM 8.6 °F -1.3 °F 5.0 °F 85% 29.63 in 1.2 mi ENE 5.8 mph - N/A   Scattered Clouds
5:34 AM 8.6 °F -1.3 °F 3.2 °F 79% 29.63 in 0.8 mi ENE 5.8 mph - N/A   Mist
5:42 AM 8.6 °F 0.1 °F 3.2 °F 79% 29.63 in 1.8 mi ENE 4.6 mph - N/A   Mostly Cloudy
5:44 AM 6.8 °F -2.0 °F 3.2 °F 85% 29.63 in 3.0 mi ENE 4.6 mph - N/A   Mostly Cloudy
5:48 AM 6.8 °F -0.1 °F 3.2 °F 85% 29.64 in 1.8 mi East 3.5 mph - N/A   Overcast
5:50 AM 8.6 °F 2.0 °F 3.2 °F 79% 29.64 in 0.8 mi East 3.5 mph - N/A   Mist
5:53 AM 8.1 °F -0.5 °F 3.9 °F 83% 29.81 in 0.5 mi ENE 4.6 mph - N/A Fog Light Freezing Fog
6:22 AM 12.2 °F - 8.6 °F 85% 29.64 in 1.0 mi Calm Calm - N/A   Mist
6:35 AM 14.0 °F - 10.4 °F 86% 29.65 in 0.2 mi Calm Calm - N/A Fog Light Freezing Fog
6:53 AM 15.1 °F - 10.9 °F 84% 29.82 in 0.2 mi Calm Calm - N/A Fog Light Freezing Fog
7:53 AM 18.0 °F 7.7 °F 12.9 °F 81% 29.87 in 0.2 mi NNE 8.1 mph - N/A   Haze
8:53 AM 19.9 °F 13.4 °F 17.1 °F 89% 29.91 in 0.2 mi ENE 4.6 mph - N/A Fog Light Freezing Fog
9:22 AM 21.2 °F - 19.4 °F 93% 29.73 in 0.5 mi Calm Calm - N/A Fog Light Freezing Fog
9:34 AM 23.0 °F 18.4 °F 21.2 °F 93% 29.73 in 0.2 mi South 3.5 mph - N/A Fog Light Freezing Fog
9:41 AM 21.2 °F - 19.4 °F 93% 29.73 in 1.0 mi Calm Calm - N/A   Overcast
9:45 AM 21.2 °F - 19.4 °F 93% 29.73 in 2.0 mi Calm Calm - N/A   Overcast
10:06 AM 24.8 °F - 21.2 °F 86% 29.74 in 1.8 mi Calm Calm - N/A   Overcast
10:18 AM 26.6 °F - 23.0 °F 86% 29.74 in 3.0 mi Calm Calm - N/A   Overcast
11:53 AM 30.0 °F 24.1 °F 24.1 °F 79% 29.84 in 10.0 mi NNE 5.8 mph - N/A   Clear
12:53 PM 34.0 °F 24.2 °F 21.9 °F 61% 29.79 in 10.0 mi West 15.0 mph 23.0 mph N/A   Partly Cloudy
1:04 PM 33.8 °F 23.2 °F 23.0 °F 65% 29.71 in 10.0 mi WSW 17.3 mph 24.2 mph N/A   Partly Cloudy
1:53 PM 35.1 °F 23.3 °F 21.0 °F 57% 29.78 in 10.0 mi West 23.0 mph 26.5 mph N/A   Clear
2:53 PM 35.1 °F 24.1 °F 21.0 °F 57% 29.78 in 10.0 mi West 19.6 mph 26.5 mph N/A   Overcast
3:53 PM 35.1 °F 24.1 °F 21.0 °F 57% 29.81 in 10.0 mi West 19.6 mph 28.8 mph N/A   Scattered Clouds
4:53 PM 34.0 °F 24.2 °F 21.0 °F 59% 29.83 in 10.0 mi West 15.0 mph 25.3 mph N/A   Clear
5:53 PM 32.0 °F 21.6 °F 21.0 °F 64% 29.89 in 10.0 mi West 15.0 mph - N/A   Clear
6:53 PM 30.0 °F 18.3 °F 21.0 °F 69% 29.89 in 10.0 mi WSW 17.3 mph - N/A   Partly Cloudy
7:53 PM 30.0 °F 19.5 °F 19.9 °F 66% 29.90 in 10.0 mi West 13.8 mph - N/A   Scattered Clouds
8:53 PM 28.9 °F 19.2 °F 19.0 °F 67% 29.91 in 10.0 mi WSW 11.5 mph - N/A   Clear
9:53 PM 27.0 °F 20.5 °F 18.0 °F 69% 29.93 in 10.0 mi Variable 5.8 mph - N/A   Clear
10:53 PM 23.0 °F - 17.1 °F 78% 29.84 in 10.0 mi Calm Calm - N/A   Clear
11:53 PM 17.1 °F 6.6 °F 14.0 °F 88% 29.96 in 10.0 mi NE 8.1 mph - N/A   Clear